Location: *
(12.6936°N, 7.8500°W)
Time: 04:40:47
(UTC+00:00)

Daily predictions for brighter satellites

Satellite Brightness Start Highest point End
(mag) Time Altitude Azimuth Time Altitude Azimuth Time Altitude Azimuth
Cosmos 1833 Rocket 4.5 03:19:02 26° NNE 03:19:02 26° NNE 03:21:28 10° NNE
CENTAUR R/B 3.4 03:12:02 10° NNW 03:19:28 67° N 03:19:28 67° N
IDEFIX/ARIANE 42P 4.0 03:34:45 10° NE 03:38:53 32° E 03:38:53 32° E
H-II Stage 2 4.2 03:49:20 63° E 03:49:20 63° E 04:01:33 10° ENE
IUS-18 SRM-1 4.5 03:50:09 46° NW 03:51:39 53° N 04:19:28 10° ENE
Cosmos 2082 Rocket 3.0 03:53:50 44° N 03:53:50 44° N 03:57:38 10° NNE
Delta 2 Rocket 4.5 03:52:39 46° N 03:52:39 46° N 03:57:57 10° NE
Nadezhda 3 Rocket 4.3 03:54:47 53° SE 03:55:53 62° E 04:02:07 10° NNE
SL-8 Rocket 4.2 03:57:33 10° N 04:02:39 57° NW 04:02:39 57° NW
Orbus 7S? 4.3 04:17:30 67° SW 04:18:23 86° NW 04:29:40 10° NNE
Cosmos 864 Rocket 4.4 04:19:52 10° NNW 04:25:54 61° W 04:26:39 57° SW
Cosmos 1892 Rocket 3.6 04:29:16 10° N 04:33:07 63° NW 04:33:07 63° NW
CZ-2C R/B 2.9 04:31:42 10° NNE 04:36:17 53° E 04:39:09 21° S
Cosmos 158 Rocket 3.8 04:32:15 10° NNW 04:37:22 70° WSW 04:41:09 19° S
H-2A R/B 4.2 04:34:08 10° NNW 04:36:29 23° NW 04:36:29 23° NW
MSX 3.7 04:32:51 10° N 04:38:38 85° WNW 04:41:39 30° SSW
Ariane H10 4.3 04:38:01 37° SSW 04:39:15 43° SSE 04:56:25 10° E
Cosmos 405 Rocket 3.2 04:43:11 45° NW 04:43:11 45° NW 04:46:29 10° N
Meteor 1-31 Rocket 3.0 04:39:53 10° NNE 04:43:40 65° ESE 04:45:07 35° S
Hubble Space Telescope 1.5 04:45:04 37° S 04:45:39 40° SSE 04:49:32 10° E
GPS 2-14 Rocket1 4.4 04:45:04 18° NNW 04:46:41 25° N 04:49:52 10° ENE
SL-27 R/B 4.4 04:48:55 17° NNW 04:48:55 17° NNW 04:50:03 10° NNW
Star 37E S/N 40062 4.2 04:49:04 35° SSE 04:49:04 35° SSE 04:51:06 10° E
Cosmos 2084 3.7 04:48:02 10° NNW 04:52:03 63° ENE 04:56:03 10° SE
OAO 2 Rocket 3.8 04:51:01 35° W 04:52:40 48° NNW 04:57:36 10° NE
SL-4 R/B 3.8 04:49:28 10° NNW 04:53:10 31° NE 04:56:35 10° ESE
Meteor 2-5 Rocket 3.7 04:49:43 10° N 04:55:16 82° E 05:00:47 10° S
Cosmos 1953 4.1 04:53:49 10° SSE 04:57:29 33° E 05:01:07 10° NNE
GPS 2-15 Rocket1 3.9 04:55:11 25° WNW 04:57:31 44° N 05:02:07 10° ENE
Ariane 42L Rocket 4.2 04:57:21 29° WSW 05:00:38 64° S 05:29:49 10° E
Cosmos 389 Rocket 3.9 04:58:37 10° NNE 05:02:02 40° E 05:05:26 10° SSE
In-Cosmos 22 4.3 04:58:01 10° NNW 05:03:21 51° W 05:08:32 10° SSW
Cosmos 1470 2.8 05:01:46 12° S 05:05:26 79° E 05:09:21 10° N
CZ-4C R/B 3.3 05:03:03 10° S 05:07:11 33° ESE 05:11:30 10° NE
CZ-3A R/B 2.9 05:05:56 13° NW 05:07:58 42° NNE 05:13:48 10° E
Cosmos 2228 4.2 05:04:34 10° SSE 05:08:41 44° E 05:12:46 10° NNE
CZ-4B R/B 4.3 05:06:13 10° N 05:10:33 50° WNW 05:13:34 19° SSW
Meteor 1-24 Rocket 3.7 05:06:14 10° N 05:11:33 78° E 05:16:50 10° S
KORONAS-FOTON 3.8 05:09:58 10° N 05:13:53 86° E 05:17:49 10° S
Cosmos 1697 Rocket 3.2 05:08:24 10° N 05:14:00 63° ENE 05:19:34 10° SSE
Meteor 1-4 Rocket 3.4 05:11:09 10° N 05:14:46 54° E 05:18:26 10° SSE
GPS 2-17 Rocket1 4.1 05:11:24 10° WNW 05:15:27 39° N 05:19:35 10° E
Cosmos 1733 4.3 05:15:47 24° WSW 05:16:33 26° W 05:19:48 10° NNW
CZ-4B R/B 4.2 05:11:59 10° NNE 05:17:21 49° ESE 05:22:46 10° S
IDEFIX/ARIANE 42P 4.1 05:15:31 10° NW 05:18:37 16° WNW 05:19:41 15° W
Okean O Rocket 2.4 05:15:33 10° NNE 05:19:45 51° E 05:23:57 10° S
Milstar 3 Cent rocket 4.5 05:17:18 10° NW 05:21:27 21° NNE 05:27:23 10° ENE
Cosmos 1980 Rocket 4.0 05:17:12 10° N 05:22:15 34° ENE 05:27:18 10° SE
PSLV R/B 4.0 05:18:52 10° N 05:22:32 47° WNW 05:26:02 12° SSW
GPS 2-05 Rocket1 3.6 05:24:07 22° SW 05:24:27 22° SW 05:26:50 10° SSE
CZ-4B R/B 3.9 05:21:39 10° NNW 05:24:28 22° WNW 05:25:46 18° WSW
Abrixas rocket 4.4 05:22:14 10° S 05:24:31 19° SE 05:26:48 10° E
Meteor PRIRODA 4.1 05:21:16 10° N 05:24:44 41° WNW 05:27:45 13° SW
Delta 202 3.6 05:20:55 18° WSW 05:24:51 77° SSE 05:30:28 10° ENE
Cosmos 1758 3.7 05:22:02 13° SSW 05:25:17 41° W 05:29:02 10° NNW
Cosmos 1674 3.0 05:24:01 10° NNW 05:27:40 43° W 05:31:19 10° SSW
Cosmos 1048 Rocket 4.0 05:23:48 10° N 05:28:55 82° ENE 05:34:01 10° SSE
Cosmos 1727 Rocket 4.0 05:23:22 10° S 05:29:33 89° W 05:35:49 10° N
Cosmos 2278 3.8 05:24:23 10° NNW 05:30:02 81° ENE 05:35:40 10° SSE
Cosmos 1821 Rocket 4.4 05:25:30 10° NNW 05:31:29 44° W 05:37:29 10° SSW
Cosmos 1656 4.1 05:26:30 10° NW 05:31:47 41° WSW 05:37:00 10° S
Cosmos 2058 Rocket 3.8 05:27:55 10° S 05:32:10 55° E 05:36:25 10° NNE
Cosmos 1484 Rocket 2.8 05:28:57 10° N 05:32:55 90° E 05:36:56 10° SSW
Delta 198 4.0 05:33:19 10° WNW 05:37:56 75° NNE 05:43:30 10° ESE
Cosmos 1626 3.6 05:37:10 10° NNE 05:40:40 41° E 05:44:10 10° SSE
CZ-3B R/B 3.9 05:36:50 10° WNW 05:42:28 78° SSW 06:07:47 10° ESE
CZ-4B DEB 4.5 05:39:46 10° N 05:45:04 50° WNW 05:50:24 10° SSW
GOES 2 Rocket 3.9 05:45:57 10° W 05:49:34 28° SSW 05:53:15 10° SSE
Cosmos 1184 Rocket 2.8 05:47:39 10° SSW 05:50:55 63° W 05:54:10 10° N
Cosmos 1833 4.4 05:50:42 10° SSW 05:56:28 86° ESE 06:02:15 10° NNE
